This is the latest recevied weather packets stored in our database for station/object W5CMS-13. If no packets are shown the sender has not sent any weather packets the latest 10 day(s).
| Time | Temp. | Humidity | Pressure | Rain* | Wind** | Luminosity | Snow |
|---|---|---|---|---|---|---|---|
| 1788116116 | 36.67° C | 42% | 1014.4 hPa | 0 mm | - | - | - |
| 1788115516 | 36.67° C | 43% | 1014.5 hPa | 0 mm | - | - | - |
| 1788114916 | 36.67° C | 44% | 1014.7 hPa | 0 mm | - | - | - |
| 1788114316 | 36.67° C | 43% | 1014.7 hPa | 0 mm | - | - | - |
| 1788113717 | 36.67° C | 45% | 1015 hPa | 0 mm | - | - | - |
| 1788113117 | 36.11° C | 46% | 1015.1 hPa | 0 mm | - | - | - |
| 1788112517 | 36.11° C | 46% | 1015.2 hPa | 0 mm | - | - | - |
| 1788111917 | 36.11° C | 48% | 1015.3 hPa | 0 mm | - | - | - |
| 1788111317 | 35.56° C | 49% | 1015.6 hPa | 0 mm | - | - | - |
| 1788110716 | 35° C | 50% | 1015.7 hPa | 0 mm | - | - | - |
| 1788110121 | 35° C | 51% | 1015.8 hPa | 0 mm | - | - | - |
| 1788109516 | 35° C | 52% | 1016 hPa | 0 mm | - | - | - |
| 1788108916 | 33.89° C | 53% | 1016.1 hPa | 0 mm | - | - | - |
| 1788108316 | 34.44° C | 54% | 1016.2 hPa | 0 mm | - | - | - |
| 1788107716 | 33.89° C | 55% | 1016.2 hPa | 0 mm | - | - | - |
| 1788107117 | 33.89° C | 56% | 1016.3 hPa | 0 mm | - | - | - |
| 1788106522 | 33.33° C | 58% | 1016.4 hPa | 0 mm | - | - | - |
| 1788105917 | 32.78° C | 57% | 1016.3 hPa | 0 mm | - | - | - |
| 1788105316 | 32.78° C | 58% | 1016.3 hPa | 0 mm | - | - | - |
| 1788104716 | 32.22° C | 60% | 1016.3 hPa | 0 mm | - | - | - |
| 1788104116 | 32.22° C | 59% | 1016.3 hPa | 0 mm | - | - | - |
| 1788103517 | 31.67° C | 62% | 1016.2 hPa | 0 mm | - | - | - |
| 1788102918 | 31.11° C | 63% | 1016.3 hPa | 0 mm | - | - | - |
| 1788102316 | 31.11° C | 64% | 1016.3 hPa | 0 mm | - | - | - |
| 1788101716 | 30.56° C | 65% | 1016.2 hPa | 0 mm | - | - | - |
* Rain latest hour (hover to see other rain measurements)
** Current wind speed in m/s (hover to see current wind gust speed)